Weather Service Report


121 
ASUS41 KRLX 210410
RWRRLX
West Virginia Regional Weather Roundup
National Weather Service Charleston WV
1200 AM EDT THU AUG 21 2014

Note: "fair" indicates few or no clouds below 12,000 feet with no
significant weather and/or obstructions to visibility.

WVZ003-210500-
Northern Panhandle of West Virginia
  
CITY           SKY/WX    TMP DP  RH WIND       PRES   REMARKS
WHEELING       CLEAR     70  67  90 SE3       30.02S                  
$$

WVZ009-210500-
Northwest West Virginia
  
CITY           SKY/WX    TMP DP  RH WIND       PRES   REMARKS
PARKERSBURG    PTCLDY    69  67  93 CALM      30.05R                  
$$

WVZ006-210500-
Western West Virginia
  
CITY           SKY/WX    TMP DP  RH WIND       PRES   REMARKS
HUNTINGTON     CLOUDY    73  67  81 W8        30.05R                  
$$

WVZ015-210500-
West Central West Virginia
  
CITY           SKY/WX    TMP DP  RH WIND       PRES   REMARKS
CHARLESTON     MOCLDY    71  70  96 CALM      30.02F                  
$$

WVZ031-210500-
North Central West Virginia
  
CITY           SKY/WX    TMP DP  RH WIND       PRES   REMARKS
CLARKSBURG     PTCLDY    68  67  96 SW3       30.03S                  
MORGANTOWN     PTCLDY    72  66  81 CALM      30.04S                  
$$

WVZ035-042-045-210500-
South Central West Virginia
  
CITY           SKY/WX    TMP DP  RH WIND       PRES   REMARKS
BECKLEY        CLOUDY    68  65  90 SW5       30.14R                  
BLUEFIELD      CLOUDY    71  65  81 NW5       30.16R                  
LEWISBURG      MOCLDY    68  65  91 CALM      30.12R                  
$$

WVZ047-210500-
Northern Mountains of West Virginia
  
CITY           SKY/WX    TMP DP  RH WIND       PRES   REMARKS
ELKINS         PTCLDY    63  61  93 CALM      30.10R                  
$$

WVZ052-210500-
Eastern Panhandle of West Virginia
  
CITY           SKY/WX    TMP DP  RH WIND       PRES   REMARKS
MARTINSBURG    MOCLDY    69  65  86 CALM      30.03R                  
PETERSBURG     NOT AVBL                                               
$$

Return to Home page


Western Regional Climate Center, wrcc@dri.edu